Regional Weather Roundup
Issued by NWS

Home | Current Version | Previous Version | Text Only | Print | Product List | Glossary Off
Versions: 1 2 3 4 5 6 7 8 9 10 11 12 13 14 15 16 17 18 19 20 21 22 23 24 25 26 27 28 29 30 31 32 33 34 35 36 37 38 39 40 41 42 43 44 45 46 47 48 49 50

000
ASUS43 KLOT 271803
RWRIL

ILLINOIS REGIONAL WEATHER ROUNDUP
NATIONAL WEATHER SERVICE CHICAGO/ROMEOVILLE IL
100 PM CDT WED JUL 27 2016

NOTE: "FAIR" INDICATES FEW OR NO CLOUDS BELOW 12,000 FEET WITH NO
SIGNIFICANT WEATHER AND/OR OBSTRUCTIONS TO VISIBILITY.

* THESE STATIONS ARE NOT UNDER NWS QUALITY CONTROL. THEY ALSO MAY NOT
  REPORT WEATHER SUCH AS PRECIPITATION OR FOG.

ILZ001-002-007-009-015-016-024-271900-
NORTHWEST ILLINOIS

CITY           SKY/WX    TMP DP  RH WIND       PRES   REMARKS
MOLINE         CLOUDY    85  68  56 SE7       29.99F HX  88
6HR MIN TEMP:  68; 6HR MAX TEMP:  86;

STERLING*      MOSUNNY   84  71  65 CALM      30.01F HX  89
SAVANNA*       MOSUNNY   84  68  59 E7        29.99F HX  87
$$

ILZ003-004-008-010-011-017-018-271900-
NORTH CENTRAL ILLINOIS

CITY           SKY/WX    TMP DP  RH WIND       PRES   REMARKS
ROCKFORD       PTSUNNY   84  63  49 S6        30.02F HX  85
6HR MIN TEMP:  68; 6HR MAX TEMP:  84;

FREEPORT*      CLOUDY    83  65  54 CALM      30.03F HX  84
ROCHELLE*      SUNNY     82  71  67 CALM      30.02F HX  87
DE KALB*       SUNNY     85  66  53 CALM      30.03F HX  87
$$

ILZ005-006-012>014-019>023-271900-
NORTHEAST ILLINOIS

CITY           SKY/WX    TMP DP  RH WIND       PRES   REMARKS
CHICAGO-OHARE  MOSUNNY   87  65  47 SW7       30.00F HX  89
6HR MIN TEMP:  72; 6HR MAX TEMP:  87;

CHICAGO-MIDWAY MOSUNNY   88  63  43 SW6       30.00F HX  89
6HR MIN TEMP:  74; 6HR MAX TEMP:  88;

AURORA         MOSUNNY   85  69  58 MISG      30.02F HX  89
6HR MIN TEMP:  67; 6HR MAX TEMP:  86;

LANSING*       PTSUNNY   85  64  49 W10       30.01F HX  87
WAUKEGAN       MOSUNNY   88  65  46 NW8       30.00F HX  90
6HR MIN TEMP:  73; 6HR MAX TEMP:  88;

DUPAGE AIRPORT MOSUNNY   86  64  47 VRB6      30.02F HX  87
6HR MIN TEMP:  70; 6HR MAX TEMP:  86;

KANKAKEE*      MOSUNNY   86  67  54 SW5       30.04F HX  89
WHEELING       PTSUNNY   87  62  43 SW7       30.02F HX  87
6HR MIN TEMP:  71; 6HR MAX TEMP:  88;

MORRIS*        MOSUNNY   84  69  59 CALM      30.01F HX  88
NORTHERLY ISL    N/A     82  70  66 SE3         N/A  HX  86
$$

LMZ740>746-271900-
SOUTHERN LAKE MICHIGAN

STATION/POSITION SKY/WX   TEMP    WIND        PRES    VSBY  WAVE
                          AIR SEA DIR/SP/G                  HT/PER
                          (F)     (DEG/KT/KT) (MB)    (MI)  (FT/S)
SOUTHERN BUOY              76 76  260/  4/  4 1015.7          0
WILMETTE HARBOR            78 73  130/  4/  4   N/A           0
HARRISON CRIB              80     110/  7/  7   N/A
BURNHAM HARBOR             83     170/  3/  7   N/A
BURNS HARBOR               77     360/  5/  6 1017.3R
MICHIGAN CITY              80     330/  5/  5   N/A
MICHIGAN CITY 6N           77 78  340/  2/  4   N/A           0
ST. JOSEPH                 76 78  230/  6/  6 1016.4R         0
$$

ILZ025>027-034>036-040-047-049-050-058-095>099-271900-
WEST-CENTRAL ILLINOIS

CITY           SKY/WX    TMP DP  RH WIND       PRES   REMARKS
QUINCY         MOSUNNY   85  73  67 CALM      29.98F HX  91
GALESBURG*     PTSUNNY   83  69  63 SE5       30.01F HX  86
MACOMB*        MOSUNNY   83  72  68 E5        30.02F HX  88
JACKSONVILLE*  PTSUNNY   84  74  72 CALM      29.98F HX  90
PITTSFIELD*    MOSUNNY   85  75  71 CALM      30.00S HX  93
$$

ILZ028>032-037-038-041>044-048-051>054-059>061-271900-
CENTRAL ILLINOIS

CITY           SKY/WX    TMP DP  RH WIND       PRES   REMARKS
PONTIAC        SUNNY     85  73  67 SE3       30.03F HX  91
BLOOMINGTON    MOSUNNY   83  69  62 SE7       30.03F HX  86
DECATUR        MOSUNNY   86  72  62 E6        30.01F HX  92
PEORIA         MOSUNNY   83  68  60 E3        30.00F HX  86
6HR MIN TEMP:  72; 6HR MAX TEMP:  86;

LACON*         MOSUNNY   85  66  53 CALM      30.00F HX  87
LINCOLN*       SUNNY     85  74  69 E3        30.00F HX  92
SPRINGFIELD    LGT RAIN  83  74  74 E9        30.00F HX  89
6HR MIN TEMP:  73; 6HR MAX TEMP:  85; 6HR PCP: TRACE;

TAYLORVILLE    MOSUNNY   83  73  73 MISG      30.00F HX  89
6HR MIN TEMP:  72; 6HR MAX TEMP:  84;

$$

ILZ033-039-045-046-055>057-062-063-271900-
EAST-CENTRAL ILLINOIS

CITY           SKY/WX    TMP DP  RH WIND       PRES   REMARKS
CHAMPAIGN      SUNNY     85  68  56 CALM      30.03S HX  88
MATTOON          N/A    N/A N/A N/A CALM      30.00F
PARIS*         MOSUNNY   84  69  61 CALM      30.02F HX  88
$$

ILZ079-100>102-271900-
SOUTHWEST ILLINOIS

CITY           SKY/WX    TMP DP  RH WIND       PRES   REMARKS
ALTON          MOSUNNY   82  73  74 SE6       29.98F HX  88
BELLEVILLE     CLOUDY    83  75  77 E2        29.98F HX  90
CAHOKIA*       PTSUNNY   85  73  67 CALM      29.99F HX  91
SPARTA*        CLOUDY    80  76  86 CALM      30.01S HX  85
$$

ILZ064>066-069>071-074>076-080>082-084>086-088>090-092>094-271900-
SOUTH-CENTRAL ILLINOIS

CITY           SKY/WX    TMP DP  RH WIND       PRES   REMARKS
CARBONDALE     PTSUNNY   85  74  69 W5        29.98F HX  92
6HR MIN TEMP:  74; 6HR MAX TEMP:  86;

CAIRO*         SUNNY     87  78  72 SW3       29.97F HX 100
EFFINGHAM*     PTSUNNY   85  76  72 NE5       30.01F HX  94
MARION         PTSUNNY   88  77  70 W5        29.99F HX 100
MT. VERNON     CLOUDY    84  73  70 MISG      29.98S HX  91
CENTRALIA*     CLOUDY    82  78  85 W3        29.99S HX  91
SALEM*         CLOUDY    83  76  79 CALM      30.00S HX  91
METROPOLIS*    MOSUNNY   89  77  66 CALM      29.98F HX 101
$$

ILZ067-068-072-073-078-083-087-091-271900-
SOUTHEAST ILLINOIS

CITY           SKY/WX    TMP DP  RH WIND       PRES   REMARKS
LAWRENCEVILLE  MOSUNNY   85  73  67 CALM      29.99F HX  91
FLORA*         PTSUNNY   85  76  75 CALM      30.00S HX  94
FAIRFIELD*     LGT RAIN  85  74  70 CALM      29.97F HX  93
HARRISBURG*    MOSUNNY   87  77  72 CALM      29.98F HX  99
ROBINSON*      MOSUNNY   84  74  72 CALM      30.01F HX  90
CARMI*         PTSUNNY   88  76  69 CALM      29.97F HX  99
$$

ABBREVIATIONS USED IN REMARKS
   TC - TEMPERATURE IN CELSIUS
  WCI - WIND CHILL INDEX
   HX - HEAT INDEX
  VSB - VISIBILITY
$$





USA.gov is the U.S. government's official web portal to all federal, state and local government web resources and services.